Regional Weather Roundup
Issued by NWS Huntsville, AL

Home | Current Version | Previous Version | Text Only | Print | Product List | Glossary On
Versions: 1 2 3 4 5 6 7 8 9 10 11 12 13 14 15 16 17 18 19 20 21 22 23 24 25 26 27 28 29 30 31 32 33 34 35 36 37 38 39 40 41 42 43 44 45 46 47 48 49 50
000
ASUS44 KHUN 270610
RWRHUN

WEATHER ROUNDUP FOR THE TENNESSEE VALLEY
NATIONAL WEATHER SERVICE HUNTSVILLE AL
100 AM CDT FRI MAR 27 2015

ALZ001>004-270700-
NORTHWEST ALABAMA

CITY           SKY/WX    TMP DP  RH WIND       PRES   REMARKS
COURTLAND HCN    N/A     45 N/A N/A MISG        N/A
RUSSELLVILLE     N/A     43 N/A N/A MISG        N/A
SHOALS AIRPORT CLOUDY    45  38  76 N12G18    30.00R
6HR MIN TEMP:  45; 6HR MAX TEMP:  50; 6HR PCP:  0.13;

SHOALS TVA RES   N/A     43 N/A N/A MISG        N/A
$$

ALZ005>007-016-270700-
NORTH CENTRAL ALABAMA

CITY           SKY/WX    TMP DP  RH WIND       PRES   REMARKS
CULLMAN AG STN   N/A     45 N/A N/A N8          N/A
DECATUR AP     CLOUDY    45  41  86 N14       29.94S
6HR MIN TEMP:  45; 6HR MAX TEMP:  51; 6HR PCP:  0.04;

HUNTSVILLE AP  CLOUDY    46  41  82 N12G24    29.93R
6HR MIN TEMP:  46; 6HR MAX TEMP:  53; 6HR PCP:  0.07;

HUN NWS/UAH      N/A     44  39  83 N7          N/A
MERIDIANVILLE  CLOUDY    43  37  81 N16G22    29.92S
REDSTONE ARSN  CLOUDY    44  41  91 N16G24    29.91F
VINEMONT AP    CLOUDY    42  41  95 N9        29.93R
$$

ALZ008>010-270700-
NORTHEAST ALABAMA

CITY           SKY/WX    TMP DP  RH WIND       PRES   REMARKS
ALBERTVILLE    RAIN      45  45 100 NW8       29.89R
FORT PAYNE     LGT RAIN  45  41  87 NE7       29.85F
SCOTTSBORO AP  LGT RAIN  46  45  93 N10G16    29.89S
SCOTTSBORO HCN   N/A     46 N/A N/A MISG        N/A
VALLEY HEAD      N/A     46 N/A N/A MISG        N/A
$$

TNZ076-096-097-270700-
SOUTHEASTERN MIDDLE TENNESSEE

CITY           SKY/WX    TMP DP  RH WIND       PRES   REMARKS
TULLAHOMA      CLOUDY    39  37  93 N9        29.93R WCI  33
WINCHESTER     CLOUDY    43  39  87 N12       29.93S
$$

...SURROUNDING SITES...

CITY           SKY/WX    TMP DP  RH WIND       PRES   REMARKS
ATLANTA        CLOUDY    56  50  80 N17       29.77F
ANNISTON       LGT RAIN  53  49  86 VRB6      29.86R
BIRMINGHAM     CLOUDY    48  46  93 N12       29.89F
CHATTANOOGA    CLOUDY    49  41  74 NW12      29.89R
CORINTH        CLOUDY    43  36  75 N7        30.01F
DALTON         CLOUDY    45  45 100 N12       29.83F
GADSDEN        CLOUDY    48  45  87 NW6       29.87S
GOLDEN TRNGL   CLOUDY    46  41  81 N12G22    29.98F
HALEYVILLE     CLOUDY    42  41  97 N10G18    29.96F
JACKSON TN     CLEAR     35  31  85 CALM      30.04F
MEMPHIS        CLEAR     41  34  76 NE3       30.06F
NASHVILLE      CLOUDY    41  36  82 NW12      29.99F
OXFORD MS      FAIR      39  36  87 N6        30.07R WCI  35
ROME           CLOUDY    50  46  86 N9        29.84F
SAVANNAH       CLOUDY    43  37  81 N12       30.02S
TUPELO         CLOUDY    45  40  82 N10       30.02R
TUSCALOOSA     CLOUDY    50  46  86 NW9       29.94R
$$

...GULF COAST WEATHER...

CITY           SKY/WX    TMP DP  RH WIND       PRES   REMARKS
GULFPORT       CLOUDY    60  57  89 N15       29.89R
PASCAGOULA     CLOUDY    64  60  87 W8        29.86S
MOBILE         CLOUDY    63  60  90 W8        29.85F
GULF SHORES    CLOUDY    66  64  93 W9        29.84F
PENSACOLA      PTCLDY    65  63  93 W3        29.84S
DESTIN         MOCLDY    69  65  86 VRB6      29.83S
PANAMA CITY    CLOUDY    68  66  93 SW8       29.82R
APPALACHICOLA  CLOUDY    69  65  86 NE3       29.83F
$$



USA.gov is the U.S. government's official web portal to all federal, state and local government web resources and services.